Dewpoint
7 9 10 10 10 11 11 11 11 11 11 10 7 9 10 11 11 10 11 11 8 9 10 9 9 9 9 9 9 10 9 9 9 9 9 9 8 7 7 7 6 6 7
5 7 9 10 10 11 11 11 11 11 11 10 8 6 6 10 11 11 11 10 8 10 10 10 10 9 9 9 10 10 9 9 10 9 8 8 7 6 7 7 7 8 7
4 6 8 9 10 10 10 10 11 10 10 8 6 4 4 10 10 9 9 9 10 10 9 9 9 9 10 9 9 9 9 9 9 9 8 8 7 7 6 7 8 7 7
1 4 6 8 9 10 10 10 10 9 6 7 6 4 7 8 9 10 9 9 9 9 9 9 9 9 9 9 9 9 9 9 9 8 8 7 7 6 7 7 8 8 7
1 4 5 6 8 7 9 10 10 10 10 9 8 9 8 8 9 8 9 9 9 9 9 9 9 8 9 8 9 8 9 9 8 8 8 7 6 7 8 8 8 8 8
-0 -0 1 3 5 6 7 9 9 9 9 10 10 8 8 8 8 9 9 9 8 8 9 9 9 8 8 9 8 9 9 8 8 8 7 7 7 7 8 8 8 7 6
-1 -1 0 1 1 3 4 5 4 7 7 8 9 9 8 8 9 9 8 8 8 8 9 9 9 8 8 8 9 8 8 8 8 8 7 7 7 6 6 7 8 8 7
-2 -2 -1 -0 1 1 1 2 2 2 4 4 6 8 9 8 7 8 8 8 8 8 8 8 8 8 8 8 8 8 8 8 8 8 7 7 7 7 8 7 7 7 7
-3 -3 -3 -2 -1 -1 0 0 1 1 1 1 2 2 7 6 7 7 8 7 7 7 7 8 8 8 8 7 7 8 8 8 7 8 7 7 8 7 8 7 7 7 5
-4 -4 -4 -3 -2 -2 -2 -2 -1 0 1 0 0 -2 2 3 4 6 5 6 6 5 5 6 6 6 6 6 5 6 7 7 7 6 7 7 7 8 7 7 6 6 6
-5 -4 -4 -4 -4 -4 -3 -3 -3 -2 -1 -0 -0 -1 -1 0 0 1 2 3 3 2 2 3 3 3 4 4 4 5 5 5 5 5 5 6 6 4 4 3 3 2 3
-5 -5 -5 -5 -4 -4 -4 -4 -4 -4 -3 -3 -3 -3 -3 -3 -3 -1 -0 0 -0 0 -1 -1 -0 0 1 2 2 2 2 1 1 1 1 1 1 1 1 0 0 0 0
-6 -6 -6 -6 -5 -5 -5 -5 -5 -5 -5 -5 -5 -5 -5 -4 -4 -4 -3 -3 -2 -2 -2 -2 -2 -2 -1 -1 -1 -2 -1 -1 -1 -1 -2 -3 -3 -3 -2 -2 -2 -2 -2
-7 -7 -7 -6 -6 -6 -6 -6 -6 -6 -6 -6 -6 -6 -6 -6 -5 -5 -4 -4 -4 -4 -5 -5 -5 -3 -3 -3 -4 -4 -4 -4 -4 -4 -5 -5 -6 -7 -7 -6 -6 -8 -12
-9 -8 -8 -8 -9 -8 -7 -7 -7 -7 -6 -6 -7 -6 -6 -7 -7 -6 -6 -5 -5 -5 -5 -5 -5 -5 -5 -6 -6 -6 -6 -6 -6 -6 -7 -8 -13 -18 -24 -29 -32 -33 -35
-10 -11 -11 -9 -9 -9 -9 -9 -9 -8 -8 -7 -7 -8 -8 -9 -10 -11 -8 -6 -6 -6 -6 -6 -6 -6 -7 -7 -7 -7 -7 -7 -7 -7 -7 -7 -8 -8 -8 -10 -14 -23 -29
-16 -11 -11 -12 -10 -10 -10 -10 -10 -10 -11 -11 -11 -11 -12 -15 -19 -23 -23 -18 -11 -8 -8 -8 -8 -8 -8 -8 -9 -10 -11 -13 -15 -18 -25 -28 -30 -31 -31 -33 -33 -34 -35
-14 -16 -11 -12 -12 -11 -11 -11 -12 -13 -14 -19 -20 -18 -19 -22 -25 -24 -24 -23 -23 -24 -23 -19 -21 -23 -22 -21 -22 -23 -24 -25 -26 -27 -28 -29 -29 -29 -29 -29 -26 -27 -29
-24 -20 -12 -12 -13 -14 -12 -12 -12 -12 -12 -13 -13 -16 -22 -22 -22 -21 -21 -22 -23 -24 -25 -25 -25 -25 -25 -27 -28 -29 -29 -29 -30 -30 -30 -30 -28 -28 -29 -31 -32 -32 -27
-12 -21 -16 -12 -12 -12 -12 -12 -12 -12 -13 -13 -14 -17 -14 -14 -15 -20 -20 -17 -17 -18 -21 -22 -24 -26 -27 -28 -29 -29 -30 -30 -30 -31 -31 -30 -28 -27 -29 -28 -25 -24 -22
-12 -12 -13 -12 -12 -13 -12 -13 -13 -13 -13 -14 -15 -20 -22 -15 -15 -15 -15 -16 -15 -16 -17 -19 -22 -25 -26 -27 -29 -30 -30 -31 -31 -31 -32 -32 -31 -28 -26 -23 -25 -25 -24
-13 -13 -13 -13 -13 -13 -13 -13 -14 -14 -14 -15 -15 -16 -20 -16 -16 -16 -17 -20 -20 -19 -18 -19 -21 -25 -27 -29 -29 -31 -31 -32 -32 -32 -32 -32 -30 -30 -27 -26 -27 -25 -25
-15 -15 -14 -14 -14 -15 -14 -14 -15 -15 -15 -15 -16 -16 -17 -17 -17 -18 -18 -21 -22 -24 -24 -23 -25 -26 -28 -29 -30 -31 -31 -32 -32 -32 -31 -30 -27 -26 -21 -20 -26 -20 -20
-16 -16 -16 -16 -16 -16 -16 -15 -15 -16 -16 -16 -16 -17 -17 -18 -18 -19 -20 -22 -24 -25 -26 -26 -27 -28 -29 -30 -30 -30 -31 -31 -31 -31 -31 -30 -29 -29 -23 -24 -25 -29 -28
-17 -17 -17 -17 -17 -17 -17 -17 -16 -17 -17 -17 -17 -17 -18 -18 -19 -19 -20 -20 -22 -22 -24 -26 -27 -28 -28 -29 -29 -30 -30 -30 -30 -30 -30 -30 -29 -29 -29 -27 -24 -24 -28
-18 -18 -18 -18 -18 -18 -18 -18 -18 -18 -18 -18 -18 -18 -18 -19 -19 -19 -20 -21 -20 -21 -22 -22 -25 -26 -26 -27 -28 -28 -29 -30 -30 -30 -29 -29 -29 -28 -28 -28 -28 -21 -24
Wind_Speed
17 5 4 10 16 21 24 28 33 34 33 37 31 20 19 36 36 36 29 30 27 30 30 28 29 28 29 28 31 30 31 30 34 27 34 40 42 35 30 29 29 28 29
20 12 2 6 10 14 19 19 25 31 31 35 31 18 25 25 28 28 31 30 27 28 28 27 29 30 30 32 33 35 36 36 34 34 33 37 36 34 31 30 29 31 32
22 14 8 1 8 12 14 18 24 26 31 32 32 38 46 33 28 30 28 28 28 26 26 28 29 27 29 31 34 34 35 37 36 37 34 35 36 34 32 32 34 34 31
21 19 13 9 2 4 10 10 16 24 27 28 32 32 30 29 27 26 25 26 27 26 25 26 26 27 30 32 32 37 34 38 39 39 36 37 39 36 35 36 36 33 34
22 20 18 10 7 5 7 12 19 21 24 29 31 32 30 26 25 26 27 27 22 23 22 23 25 25 28 32 37 38 36 42 43 40 36 34 36 34 35 38 38 37 33
26 23 19 13 8 6 3 13 21 27 30 30 31 27 26 24 26 26 24 24 22 22 21 22 21 20 20 24 22 33 35 45 45 43 37 40 38 38 36 37 39 38 33
28 26 24 20 20 17 13 7 9 23 32 34 35 29 26 26 25 22 22 21 20 21 20 19 21 20 18 13 21 33 36 40 40 43 38 36 40 43 45 40 41 39 35
29 29 27 26 23 20 17 13 5 7 15 18 25 25 27 24 21 19 19 18 17 16 16 16 15 14 13 17 21 31 33 36 37 37 34 38 36 37 40 39 36 34 32
30 29 27 25 24 23 24 23 20 13 11 16 20 17 20 17 18 17 17 16 15 15 14 14 14 14 12 15 24 31 36 39 36 33 36 36 39 39 37 36 38 39 33
29 27 26 26 24 24 23 22 22 20 20 15 15 19 18 14 14 15 12 13 14 13 13 12 14 12 13 15 16 25 29 29 29 34 36 37 34 30 34 36 34 38 36
26 26 25 26 26 25 23 23 24 24 22 22 20 20 20 16 13 10 9 11 11 12 11 10 10 9 11 14 15 18 21 23 23 25 26 26 27 25 26 25 24 25 28
24 27 28 27 27 26 27 27 26 26 27 26 26 27 26 24 20 18 11 7 7 8 12 13 13 10 10 9 12 15 18 18 18 19 20 20 20 19 20 20 20 18 16
23 24 25 25 26 27 27 28 29 29 30 29 29 28 27 26 24 24 22 16 14 14 15 13 12 12 16 19 19 18 17 17 19 21 24 24 22 21 21 18 16 14 12
19 20 21 23 24 23 25 26 25 25 24 24 26 25 24 24 24 24 21 19 20 20 20 17 16 17 17 19 19 18 18 19 18 18 19 18 19 18 18 16 14 17 16
17 17 17 18 19 21 24 24 24 23 21 21 20 18 18 20 20 17 15 15 16 16 17 17 17 18 20 19 19 19 19 19 18 18 17 17 16 15 16 16 16 15 13
16 17 17 15 15 14 14 17 19 18 15 15 13 13 13 13 10 10 9 9 10 10 11 13 14 15 16 15 15 16 15 14 14 12 12 11 10 9 9 10 11 13 13
18 15 14 15 14 13 12 11 11 14 14 14 13 12 11 10 9 8 8 6 3 4 4 8 9 10 11 11 11 12 12 13 13 13 13 13 12 12 11 12 12 11 12
16 17 15 14 13 12 11 10 10 10 11 12 13 13 11 10 9 8 7 7 5 5 7 7 7 8 9 9 9 10 12 12 12 12 12 12 11 9 9 8 8 7 8
16 15 13 13 14 13 11 10 10 9 9 9 9 10 9 9 9 7 5 4 5 6 6 6 7 7 8 8 8 9 9 10 11 10 10 10 9 8 7 7 6 6 6
13 14 13 11 11 11 11 10 9 9 9 9 8 8 7 7 6 5 5 5 6 5 5 5 6 7 7 7 7 8 8 8 8 8 8 8 7 7 7 6 5 5 4
11 11 12 10 11 11 10 10 9 8 8 8 8 8 7 6 6 6 5 5 5 4 3 3 4 4 5 5 5 6 6 6 7 7 7 7 7 6 6 5 5 5 4
10 10 10 10 10 9 8 9 8 7 7 7 7 9 9 7 6 5 4 3 1 1 1 2 3 4 5 6 5 5 5 5 6 7 7 7 6 6 5 5 5 4 4
9 9 8 8 7 8 7 7 7 7 7 6 7 7 7 6 6 5 5 4 4 4 4 4 5 5 5 6 6 6 6 6 6 6 6 6 5 5 4 4 5 5 4
9 9 8 8 8 7 7 7 7 8 6 6 6 6 6 5 5 6 5 5 5 4 5 5 6 6 6 6 7 7 7 7 7 7 8 8 6 6 5 5 5 5 5
9 9 8 8 8 8 8 7 7 7 7 7 7 7 7 7 6 5 6 8 7 6 6 5 5 5 6 6 7 6 6 7 7 7 8 8 7 7 7 7 6 5 6
9 9 8 8 8 9 8 8 8 8 8 8 8 8 8 8 8 8 9 8 8 7 6 6 6 6 6 6 6 6 5 5 6 7 7 7 7 7 7 7 7 5 6
Wind_Direction
353 21 240 259 238 233 228 222 221 225 225 218 201 210 234 227 231 235 222 228 232 234 235 233 235 238 241 243 241 235 232 231 235 230 232 233 218 205 207 209 211 211 214
359 16 30 232 218 242 235 219 217 222 223 207 202 220 238 247 230 230 212 231 229 229 232 235 239 241 244 244 241 242 246 247 241 229 225 212 199 198 206 211 209 211 216
3 13 21 177 182 200 208 210 215 205 203 197 211 227 223 230 224 226 227 224 226 230 236 241 242 242 243 246 248 251 248 250 241 228 212 204 200 200 204 208 208 216 220
8 16 23 30 189 208 192 196 215 204 200 205 209 211 208 207 210 213 220 224 230 231 237 241 242 245 249 249 254 244 248 243 233 218 205 204 201 200 208 212 210 214 217
20 20 5 19 328 357 215 213 207 204 209 205 194 187 187 196 210 219 226 224 227 230 234 238 246 255 251 254 252 246 246 235 221 206 206 202 201 203 203 204 208 207 207
29 38 35 39 41 34 333 209 210 204 197 198 188 188 194 201 213 216 217 217 223 230 236 243 248 253 250 243 245 243 242 223 212 201 202 201 202 209 209 209 209 201 190
37 39 45 46 51 46 35 332 230 186 183 176 184 190 194 203 201 209 217 220 222 227 232 239 246 257 254 255 242 231 229 220 223 214 207 209 211 212 217 217 203 204 207
40 44 45 50 54 61 62 51 55 137 150 130 143 171 181 193 202 204 208 215 222 224 228 234 238 242 253 240 233 220 223 217 211 216 216 218 221 225 208 210 213 218 220
43 44 47 51 56 59 68 68 65 63 77 106 123 123 162 172 186 195 206 206 210 212 209 212 216 231 235 223 218 217 218 210 203 207 217 218 225 216 214 224 222 218 206
43 45 49 52 54 58 61 66 75 69 63 57 74 90 118 135 162 179 184 191 192 181 180 192 204 210 207 198 206 211 208 201 206 206 206 216 212 218 218 223 224 225 221
49 51 53 56 58 59 60 64 67 72 79 76 75 68 77 91 96 122 149 165 166 154 150 149 160 187 196 195 194 195 197 185 193 196 199 206 212 206 208 204 203 201 205
51 54 55 59 62 65 68 66 69 70 72 74 73 72 67 70 70 75 80 102 119 139 125 124 127 139 156 166 175 173 173 168 166 167 167 161 162 164 165 170 176 182 182
55 57 58 59 62 65 66 71 69 68 70 70 73 75 72 70 70 71 70 74 86 94 94 92 106 124 131 135 133 133 135 139 141 143 133 126 126 130 134 140 137 140 143
42 45 51 57 58 61 65 60 61 65 66 70 70 70 73 74 72 72 77 83 82 85 89 97 105 111 113 113 115 118 121 125 125 120 121 121 118 115 115 116 123 130 142
40 44 43 42 47 47 53 56 59 60 58 63 64 69 70 69 67 72 78 82 87 92 102 108 106 103 103 104 107 110 115 118 120 119 119 117 121 128 132 132 131 133 138
37 39 46 43 43 45 45 44 49 48 50 60 60 57 56 62 64 70 73 79 89 99 107 106 104 105 106 108 111 114 117 120 119 124 128 133 140 145 145 144 148 152 152
44 42 40 43 42 42 43 44 36 24 34 39 45 47 49 50 49 51 63 54 102 112 120 108 108 109 109 114 120 125 128 132 135 139 144 143 145 146 145 147 148 148 146
32 35 36 36 35 33 36 36 34 30 24 22 28 32 34 37 39 45 65 69 77 93 97 96 103 110 115 120 129 134 140 141 143 144 145 144 141 140 138 137 134 134 135
26 26 26 24 23 26 28 27 25 25 30 28 23 14 21 29 37 49 69 85 92 94 100 107 117 124 129 136 139 139 143 145 147 148 145 143 142 146 148 151 157 157 143
14 17 20 17 16 18 20 25 23 22 23 25 22 21 23 21 29 33 48 69 78 88 103 119 132 141 143 143 144 143 146 148 150 153 153 153 155 156 160 155 150 146 141
8 4 11 5 7 10 11 12 11 10 11 15 14 9 7 31 31 39 44 54 63 75 102 127 146 159 161 164 164 169 173 173 172 172 172 175 171 168 163 159 157 159 160
5 1 359 359 357 353 356 354 356 360 1 1 358 354 6 19 18 20 18 351 345 27 146 177 188 194 194 194 193 193 193 189 187 185 183 180 177 177 170 168 166 169 168
3 1 357 349 349 343 339 338 339 343 344 348 349 350 358 3 8 6 344 320 303 278 260 250 242 235 228 223 216 211 208 205 202 194 187 184 177 176 169 174 179 173 189
4 1 357 352 341 344 335 331 325 326 323 324 326 334 340 348 351 344 335 325 312 294 277 260 249 240 235 232 226 220 215 209 206 204 204 198 197 188 187 190 202 209 215
6 4 359 353 348 342 336 327 317 305 303 307 308 310 311 316 317 317 317 317 313 307 293 277 258 242 234 231 227 223 218 211 209 204 203 208 211 210 210 208 210 224 226
6 2 356 352 344 338 330 322 312 306 300 296 295 291 292 293 291 289 291 298 301 300 294 285 274 259 250 241 233 234 231 222 219 214 209 212 214 220 219 227 225 225 237
Height
1367 1363 1363 1364 1365 1366 1368 1372 1378 1380 1382 1386 1394 1400 1407 1411 1416 1418 1423 1428 1431 1434 1438 1440 1442 1445 1447 1449 1451 1453 1456 1458 1459 1460 1465 1467 1471 1479 1485 1491 1496 1500 1502
1369 1364 1361 1361 1360 1364 1366 1367 1372 1376 1380 1385 1386 1393 1400 1409 1412 1414 1418 1421 1424 1428 1432 1434 1435 1438 1438 1441 1443 1445 1447 1449 1453 1455 1457 1460 1465 1473 1479 1484 1490 1489 1496
1370 1364 1362 1360 1359 1361 1364 1366 1368 1372 1376 1379 1384 1387 1393 1402 1405 1410 1413 1417 1421 1423 1425 1427 1428 1429 1430 1432 1434 1435 1439 1441 1444 1446 1450 1455 1461 1468 1475 1477 1479 1485 1490
1375 1367 1362 1359 1359 1359 1360 1360 1368 1370 1374 1377 1382 1382 1387 1396 1402 1405 1409 1413 1415 1417 1419 1420 1421 1422 1422 1424 1425 1425 1430 1433 1436 1439 1444 1450 1455 1462 1466 1469 1475 1479 1483
1375 1364 1365 1359 1359 1352 1359 1363 1365 1368 1371 1374 1374 1379 1382 1388 1395 1401 1404 1407 1408 1411 1412 1413 1414 1414 1414 1415 1415 1417 1420 1424 1426 1432 1437 1444 1450 1455 1458 1462 1467 1472 1477
1379 1375 1371 1364 1361 1360 1358 1360 1362 1363 1367 1372 1373 1376 1379 1383 1391 1397 1399 1402 1403 1405 1406 1407 1407 1407 1408 1408 1408 1409 1412 1415 1419 1423 1430 1436 1442 1448 1453 1456 1459 1465 1470
1387 1381 1374 1370 1364 1361 1360 1361 1361 1357 1359 1361 1367 1371 1375 1381 1387 1392 1396 1398 1398 1399 1400 1401 1402 1402 1402 1400 1401 1404 1407 1411 1416 1418 1425 1431 1436 1441 1446 1451 1454 1459 1463
1393 1386 1380 1375 1371 1370 1369 1368 1366 1362 1360 1352 1357 1366 1371 1378 1384 1389 1392 1393 1393 1394 1394 1396 1398 1398 1397 1397 1398 1400 1405 1408 1412 1416 1423 1427 1432 1437 1440 1446 1450 1454 1457
1399 1394 1389 1385 1381 1379 1375 1373 1371 1371 1367 1363 1361 1365 1368 1374 1380 1384 1387 1388 1389 1390 1391 1392 1394 1395 1395 1396 1397 1398 1400 1403 1408 1413 1418 1423 1427 1431 1436 1441 1443 1445 1448
1406 1402 1398 1394 1390 1387 1385 1381 1377 1375 1372 1373 1368 1369 1369 1374 1378 1381 1384 1385 1387 1387 1388 1388 1390 1392 1393 1395 1397 1398 1399 1403 1406 1409 1412 1418 1421 1425 1429 1434 1436 1437 1441
1414 1409 1405 1401 1398 1395 1392 1388 1385 1380 1378 1374 1377 1377 1375 1376 1380 1382 1384 1385 1387 1387 1388 1388 1388 1391 1393 1394 1396 1398 1399 1400 1403 1406 1409 1413 1416 1420 1422 1427 1430 1435 1437
1420 1416 1413 1409 1406 1403 1400 1397 1393 1391 1387 1385 1386 1384 1383 1386 1387 1384 1387 1389 1390 1390 1390 1390 1390 1392 1393 1395 1397 1398 1399 1401 1403 1405 1408 1411 1413 1418 1420 1425 1428 1432 1436
1426 1422 1420 1418 1414 1412 1408 1405 1403 1401 1398 1398 1397 1396 1395 1393 1396 1392 1391 1395 1394 1395 1395 1398 1397 1397 1396 1396 1399 1402 1404 1406 1406 1409 1410 1414 1417 1420 1421 1424 1428 1432 1437
1431 1429 1427 1423 1421 1418 1415 1413 1412 1410 1410 1407 1406 1406 1405 1405 1403 1398 1401 1404 1400 1402 1401 1404 1406 1403 1402 1402 1404 1406 1408 1410 1412 1416 1417 1419 1421 1423 1426 1429 1431 1434 1439
1438 1434 1432 1430 1428 1426 1423 1420 1418 1417 1416 1415 1415 1415 1413 1410 1409 1409 1411 1411 1409 1408 1410 1411 1411 1410 1408 1409 1411 1412 1414 1417 1419 1420 1421 1424 1428 1430 1432 1433 1435 1438 1441
1442 1439 1437 1435 1434 1432 1431 1428 1426 1426 1425 1423 1421 1420 1419 1416 1415 1413 1415 1416 1415 1415 1416 1415 1415 1414 1414 1415 1416 1417 1419 1420 1423 1426 1427 1429 1432 1434 1436 1437 1438 1439 1441
1445 1444 1442 1440 1439 1437 1435 1435 1434 1431 1427 1426 1425 1423 1422 1420 1418 1418 1418 1418 1418 1419 1419 1416 1418 1418 1418 1419 1421 1421 1422 1423 1424 1427 1429 1430 1434 1437 1439 1439 1440 1441 1441
1449 1446 1445 1443 1442 1441 1439 1438 1436 1434 1432 1430 1428 1426 1424 1423 1421 1421 1421 1421 1421 1420 1419 1420 1421 1421 1421 1422 1424 1423 1424 1424 1426 1429 1430 1431 1434 1438 1439 1441 1442 1443 1442
1452 1449 1448 1447 1445 1443 1441 1440 1438 1437 1435 1433 1432 1430 1428 1426 1425 1424 1424 1424 1423 1423 1423 1423 1423 1424 1424 1425 1426 1426 1427 1427 1427 1430 1430 1432 1434 1437 1439 1440 1442 1443 1444
1454 1451 1449 1449 1448 1446 1444 1442 1441 1440 1439 1436 1434 1433 1432 1432 1428 1427 1426 1426 1426 1425 1425 1426 1425 1425 1426 1426 1427 1427 1428 1429 1429 1430 1430 1432 1435 1437 1438 1439 1442 1443 1445
1456 1454 1452 1452 1449 1447 1446 1444 1443 1442 1440 1439 1436 1434 1433 1433 1431 1430 1429 1428 1427 1427 1427 1426 1425 1426 1425 1427 1427 1428 1429 1429 1429 1430 1430 1432 1434 1437 1437 1438 1440 1442 1443
1457 1456 1455 1452 1451 1449 1447 1446 1445 1443 1441 1440 1438 1434 1432 1432 1431 1429 1428 1426 1426 1425 1425 1425 1424 1425 1425 1426 1426 1427 1428 1428 1429 1429 1430 1432 1433 1435 1436 1437 1438 1441 1443
1458 1456 1455 1454 1452 1451 1449 1447 1446 1444 1442 1440 1438 1437 1435 1433 1431 1429 1427 1425 1425 1424 1424 1424 1424 1424 1424 1424 1425 1426 1426 1427 1428 1429 1430 1432 1432 1434 1436 1437 1437 1440 1442
1457 1456 1454 1453 1451 1450 1448 1447 1445 1443 1441 1440 1439 1437 1435 1434 1432 1429 1428 1426 1425 1424 1423 1423 1423 1423 1423 1423 1424 1424 1425 1425 1426 1427 1429 1430 1431 1433 1434 1436 1437 1437 1438
1457 1455 1454 1453 1451 1449 1447 1446 1445 1443 1442 1440 1439 1437 1435 1433 1432 1430 1428 1426 1425 1423 1422 1422 1422 1422 1422 1423 1422 1423 1424 1424 1425 1426 1427 1428 1429 1431 1432 1434 1435 1436 1437
1457 1455 1454 1452 1450 1448 1446 1444 1443 1441 1440 1439 1437 1436 1434 1433 1432 1430 1427 1425 1423 1422 1422 1421 1421 1420 1421 1421 1421 1421 1422 1422 1423 1424 1425 1426 1428 1429 1430 1431 1433 1434 1434